EW6394 Weather Reports


time (UTC)temp
C
wind
direction
speed
KPH
gust
KPH
rain 1hr
cm
rain 24hr
cm
rain mn
cm
humidity
%
barometer
mb
20260506213013 22 143 6.4 19.3 0.00 0.00 0.00 58 1017.4
20260506211515 22 240 6.4 19.3 0.00 0.00 0.00 58 1017.5
20260506210010 22 186 6.4 16.1 0.00 0.00 0.00 57 1017.7
20260506204509 22 130 3.2 11.3 0.00 0.00 0.00 59 1017.7
20260506203007 21 6 1.6 6.4 0.00 0.00 0.00 57 1017.9
20260506201504 21 16 3.2 17.7 0.00 0.00 0.00 58 1018.1
20260506200005 20 323 3.2 16.1 0.00 0.00 0.00 61 1018.3
20260506194502 20 32 6.4 12.9 0.00 0.00 0.00 59 1018.5
20260506193102 20 204 1.6 16.1 0.00 0.00 0.00 62 1018.5
20260506191600 19 201 3.2 12.9 0.00 0.00 0.00 65 1018.7
20260506190055 18 27 6.4 11.3 0.00 0.00 0.00 65 1018.9
20260506184605 18 15 4.8 11.3 0.00 0.00 0.00 68 1019.1
20260506183059 17 323 1.6 12.9 0.00 0.00 0.00 71 1019.1
20260506181547 17 317 6.4 14.5 0.00 0.00 0.00 71 1019.3
20260506180048 16 48 6.4 12.9 0.00 0.00 0.00 76 1019.4
20260506174544 15 16 4.8 11.3 0.00 0.00 0.00 77 1019.5
20260506173050 15 47 1.6 11.3 0.00 0.00 0.00 80 1019.5
20260506171538 14 36 6.4 12.9 0.00 0.00 0.00 82 1019.5
20260506170034 13 325 6.4 11.3 0.00 0.00 0.00 82 1019.6
20260506164528 12 37 8.0 14.5 0.00 0.00 0.00 86 1019.7
20260506163027 12 336 6.4 14.5 0.00 0.00 0.00 87 1019.9
20260506161505 11 342 4.8 11.3 0.00 0.00 0.00 91 1019.9
20260506160010 10 34 6.4 11.3 0.00 0.00 0.00 90 1019.9
20260506154606 10 30 6.4 11.3 0.00 0.00 0.00 93 1020.0
20260506154510 10 49 8.0 11.3 0.00 0.00 0.00 94 1020.0
20260506153055 10 31 4.8 9.7 0.00 0.00 0.00 97 1020.1
20260506153014 10 36 4.8 8.0 0.00 0.00 0.00 97 1020.1
20260506151545 9 133 3.2 8.0 0.00 0.00 0.00 97 1020.2
20260506150043 8 132 4.8 8.0 0.00 0.00 0.00 97 1020.3
20260506144553 8 134 4.8 8.0 0.00 0.00 0.00 97 1020.3
20260506143041 8 135 3.2 4.8 0.00 0.00 0.00 97 1020.1
20260506141540 7 135 3.2 4.8 0.00 0.00 0.00 96 1019.9
20260506140044 8 140 3.2 4.8 0.00 0.00 0.00 96 1019.8
20260506134536 8 142 1.6 4.8 0.00 0.00 0.00 96 1019.6
20260506133034 8 143 0.0 3.2 0.00 0.00 0.00 96 1019.4
20260506131535 8 144 0.0 3.2 0.00 0.00 0.00 96 1019.3
20260506130056 8 144 0.0 0.0 0.00 0.00 0.00 96 1019.2
20260506124531 7 144 0.0 1.6 0.00 0.00 0.00 96 1019.1
20260506123032 7 144 0.0 1.6 0.00 0.00 0.00 95 1019.0
20260506121529 7 160 0.0 0.0 0.00 0.00 0.00 95 1018.9
20260506120040 7 160 0.0 0.0 0.00 0.00 0.00 95 1018.8
20260506114526 7 161 0.0 3.2 0.00 0.00 0.00 95 1018.6
20260506113030 7 162 1.6 4.8 0.00 0.00 0.00 95 1018.7
20260506111522 7 160 0.0 0.0 0.00 0.00 0.00 95 1018.7
20260506110021 7 161 0.0 0.0 0.00 0.00 0.00 94 1018.8
20260506104525 8 161 0.0 3.2 0.00 0.00 0.00 94 1018.7
20260506103026 8 158 0.0 0.0 0.00 0.00 0.00 94 1018.7
20260506101517 8 160 0.0 0.0 0.00 0.00 0.00 94 1018.7
20260506100017 8 160 0.0 0.0 0.00 0.00 0.00 94 1018.6
20260506094519 8 162 0.0 1.6 0.00 0.00 0.00 93 1018.6
20260506093016 8 157 0.0 1.6 0.00 0.00 0.00 94 1018.5
20260506091517 8 161 0.0 3.2 0.00 0.00 0.00 93 1018.4
20260506090018 8 161 0.0 3.2 0.00 0.00 0.00 93 1018.5
20260506084509 8 160 0.0 3.2 0.00 0.00 0.00 91 1018.4
20260506083006 8 149 0.0 0.0 0.00 0.00 0.00 91 1018.5
20260506081505 8 149 0.0 0.0 0.00 0.00 0.00 91 1018.5
20260506073103 9 149 0.0 0.0 0.00 0.00 0.00 90 1018.4
20260506071558 10 149 0.0 0.0 0.00 0.00 0.00 89 1018.2
20260506061600 10 149 0.0 0.0 0.00 0.00 0.00 84 1017.6
20260506050104 10 176 0.0 1.6 0.00 0.00 0.00 84 1017.1
20260506044550 10 176 0.0 0.0 0.00 0.00 0.00 84 1017.0
20260506043044 11 176 0.0 0.0 0.00 0.00 0.00 84 1016.8
20260506041542 11 176 0.0 0.0 0.00 0.00 0.00 82 1016.6
20260506040043 11 176 0.0 0.0 0.00 0.00 0.00 81 1016.4
20260506034540 11 147 1.6 6.4 0.00 0.00 0.00 79 1016.1
20260506033038 11 183 6.4 16.1 0.00 0.00 0.00 83 1015.8
20260506031544 11 199 8.0 16.1 0.00 0.00 0.00 84 1015.5
20260506030032 11 226 6.4 12.9 0.00 0.00 0.00 85 1015.2
20260506024541 12 201 8.0 14.5 0.00 0.00 0.00 83 1015.1
20260506023031 12 196 6.4 14.5 0.00 0.00 0.00 81 1015.0
20260506021532 12 149 11.3 20.9 0.00 0.00 0.00 80 1014.9
20260506020029 13 165 9.7 19.3 0.00 0.00 0.00 79 1014.8
20260506014531 13 185 11.3 19.3 0.00 0.00 0.00 79 1014.9
20260506013053 13 227 9.7 16.1 0.00 0.00 0.00 77 1014.8
20260506011534 13 167 6.4 19.3 0.00 0.00 0.00 76 1014.9
20260506010028 13 174 6.4 16.1 0.00 0.00 0.00 75 1014.9
20260506004527 13 159 11.3 20.9 0.00 0.00 0.00 73 1014.8
20260506003027 14 190 9.7 19.3 0.00 0.00 0.00 72 1014.7
20260506001526 15 207 8.0 14.5 0.00 0.00 0.00 71 1014.7
20260506000030 15 202 6.4 19.3 0.00 0.00 0.00 72 1014.7
20260505234526 16 203 8.0 17.7 0.00 0.00 0.00 70 1014.6
20260505233025 16 150 4.8 14.5 0.00 0.00 0.00 71 1014.6
20260505231525 16 165 4.8 14.5 0.00 0.00 0.00 68 1014.7
20260505230029 16 163 8.0 17.7 0.00 0.00 0.00 68 1014.7
20260505224523 16 201 4.8 16.1 0.00 0.00 0.00 69 1014.9
20260505223028 16 196 4.8 16.1 0.00 0.00 0.00 66 1014.9
20260505221525 16 188 4.8 16.1 0.00 0.00 0.00 67 1015.0
20260505220022 16 138 6.4 12.9 0.00 0.00 0.00 67 1015.2
20260505214524 16 149 8.0 19.3 0.00 0.00 0.00 67 1015.4